This is the latest recevied weather packets stored in our database for station/object IW4DZV-13. If no packets are shown the sender has not sent any weather packets the latest 10 day(s).
| Time | Temp. | Humidity | Pressure | Rain* | Wind** | Luminosity | Snow |
|---|---|---|---|---|---|---|---|
| 1787479242 | 27.22° C | 60% | 1017.9 hPa | 0.51 mm | - | 788 W/m² | - |
| 1787478335 | 27.22° C | 59% | 1017.9 hPa | 0.51 mm | - | 786 W/m² | - |
| 1787477431 | 26.67° C | 61% | 1017.8 hPa | 0.51 mm | - | 728 W/m² | - |
| 1787476531 | 26.67° C | 62% | 1017.8 hPa | 0.51 mm | - | 726 W/m² | - |
| 1787475628 | 26.67° C | 61% | 1017.7 hPa | 0.25 mm | - | 747 W/m² | - |
| 1787474726 | 26.11° C | 63% | 1017.8 hPa | 0.25 mm | - | 715 W/m² | - |
| 1787473825 | 26.11° C | 63% | 1017.7 hPa | 0.25 mm | - | 336 W/m² | - |
| 1787472923 | 26.11° C | 63% | 1017.7 hPa | 0.25 mm | - | 624 W/m² | - |
| 1787472032 | 25.56° C | 65% | 1017.5 hPa | 0.25 mm | - | 575 W/m² | - |
| 1787471117 | 24.44° C | 66% | 1017.5 hPa | 0.25 mm | - | 504 W/m² | - |
| 1787470212 | 23.89° C | 67% | 1017.5 hPa | 0.25 mm | - | 489 W/m² | - |
| 1787469309 | 23.33° C | 70% | 1017.5 hPa | 0.25 mm | - | 522 W/m² | - |
| 1787468408 | 23.33° C | 69% | 1017.4 hPa | 0.25 mm | - | 258 W/m² | - |
| 1787467504 | 22.78° C | 70% | 1017.3 hPa | 0.25 mm | - | 362 W/m² | - |
| 1787466602 | 22.22° C | 71% | 1017.3 hPa | 0.25 mm | - | 171 W/m² | - |
| 1787465759 | 21.67° C | 73% | 1017 hPa | 0.25 mm | - | 183 W/m² | - |
| 1787464857 | 20.56° C | 75% | 1017 hPa | 0.25 mm | - | 204 W/m² | - |
| 1787463954 | 20° C | 77% | 1016.8 hPa | 0.25 mm | - | 132 W/m² | - |
| 1787463055 | 19.44° C | 77% | 1016.8 hPa | 0.25 mm | - | 54 W/m² | - |
| 1787462155 | 19.44° C | 78% | 1016.7 hPa | 0.25 mm | - | 26 W/m² | - |
| 1787461249 | 19.44° C | 78% | 1016.6 hPa | 0.25 mm | - | 25 W/m² | - |
| 1787460345 | 19.44° C | 79% | 1016.5 hPa | 0.25 mm | - | 14 W/m² | - |
| 1787459449 | 19.44° C | 79% | 1016.3 hPa | 0.25 mm | - | 0 W/m² | - |
| 1787458542 | 19.44° C | 79% | 1016.1 hPa | 0.25 mm | - | 0 W/m² | - |
| 1787457644 | 19.44° C | 79% | 1016.2 hPa | 0.25 mm | - | 0 W/m² | - |
* Rain since midnight (hover to see other rain measurements)
** Current wind speed in m/s (hover to see current wind gust speed)